Regional Weather Roundup
Issued by NWS

Home | Current Version | Previous Version | Graphics & Text | Print | Product List | Glossary Off
Versions: 1 2 3 4 5 6 7 8 9 10 11 12 13 14 15 16 17 18 19 20 21 22 23 24 25 26 27 28 29 30 31 32 33 34 35 36 37 38 39 40 41 42 43 44 45 46 47 48 49 50

000
ASUS43 KLMK 211010
RWRKY
KENTUCKY REGIONAL WEATHER ROUNDUP
NATIONAL WEATHER SERVICE LOUISVILLE KY
500 AM EST WED FEB 21 2018

NOTE "FAIR" INDICATES FEW OR NO CLOUDS BELOW 12,000 FEET
WITH NO SIGNIFICANT WEATHER AND/OR OBSTRUCTIONS TO VISIBILITY.

KYZ001>023-026-027-061>063-070>075-211100-
WESTERN AND SOUTH CENTRAL KENTUCKY

CITY           SKY/WX    TMP DP  RH WIND       PRES   REMARKS
PADUCAH        LGT RAIN  44  41  89 N13G20    30.23R
HENDERSON      RAIN      46  44  93 NW10G23   30.23R
OWENSBORO      LGT RAIN  51  50  96 NW5       30.18R
HOPKINSVILLE   FAIR      70  61  72 S16G23    30.13S
BOWLING GREEN  CLOUDY    70  64  81 SW10G28   30.16R
GLASGOW        MOCLDY    70  61  73 S16G24    30.17R
$$

KYZ024-025-028>034-038-045-046-053-211100-
NORTH CENTRAL KENTUCKY

CITY           SKY/WX    TMP DP  RH WIND       PRES   REMARKS
LOUISVILLE/SDF HVY RAIN  61  58  90 NW15G25   30.17R FOG
LOUISVILLE/LOU CLOUDY    65  59  81 NW12G29   30.16R
FORT KNOX      LGT RAIN  64  57  77 W13G25    30.18R
$$

KYZ035>037-039>044-047>052-055>060-089>105-211100-
NORTHEAST KENTUCKY

CITY           SKY/WX    TMP DP  RH WIND       PRES   REMARKS
LEXINGTON      FAIR      67  58  72 S16G25    30.16R
COVINGTON      MOCLDY    66  60  81 S15       30.09S
FRANKFORT      FAIR      70  58  65 S15G30    30.13S
$$

KYZ054-064>069-076>088-106>120-211100-
SOUTHEAST KENTUCKY

CITY           SKY/WX    TMP DP  RH WIND       PRES   REMARKS
JACKSON        FAIR      67  54  63 S6        30.23F
LONDON         FAIR      66  57  72 S3        30.24S
SOMERSET       MOCLDY    66  59  77 MISG      30.24S
MIDDLESBORO    MOCLDY    66  59  76 S9        30.29S
MONTICELLO     NOT AVBL
$$





USA.gov is the U.S. government's official web portal to all federal, state and local government web resources and services.